Location: Oberkirch
(48.5323°N, 8.0787°E)
Time: 17:21:04
(UTC+00:00)

SL-24 R/B - RUBIN 2 - Pass Details

Date: 18 February 2026
Orbit: 603 x 984 km, 64.6° (Epoch: 8 March)

Event Time Altitude Azimuth Distance (km) Brightness Sun altitude
Exits shadow 04:45:16 10° 332° (NNW) 1,999 5.9 -18.0°
Maximum altitude 04:46:32 11° 348° (NNW) 1,918 6.0 -17.8°
Drops below altitude 10° 04:47:54 10° 7° (N) 1,983 6.3 -17.6°
Sets 04:51:51 0° 43° (NE) 2,865 7.7 -16.9°
